{"data":{"norad_id":57784,"intl_designator":"2023-134P","name":"STARLINK-30388","alt_names":[],"object_type":"PAYLOAD","status":"ACTIVE","operator":null,"country":"US","launch_date":"2023-09-04","launch_site_code":"AFETR","launch_vehicle":null,"mission":null,"orbit_class":"UNKNOWN","rcs_meters":null,"size_class":null,"mass_kg":null,"dimensions":null,"purposes":["comms"],"wikipedia_slug":null,"has_3d_model":false,"image_url":null,"decayed_at":null,"tle_current":{"epoch":"2026-09-20T02:42:07.014816Z","epoch_age_seconds":164778,"freshness":"FRESH","line1":"1 57784U 23134P   26263.11258119 -.00000058  00000+0  74311-5 0  9995","line2":"2 57784  43.0015 176.2831 0001090 270.9558  89.1169 15.27584366169243","mean_motion":15.27584366,"eccentricity":0.000109,"inclination_deg":43.0015,"raan_deg":176.2831,"arg_perigee_deg":270.9558,"mean_anomaly_deg":89.1169,"bstar":7.4311e-6,"rev_number":16924,"period_min":94.266479289171,"perigee_km":482.28815483666,"apogee_km":483.7838905556,"semimajor_km":6861.1730226961,"source":"CELESTRAK","updated_at":"2026-09-21T09:00:33.704787Z"}}}